Location: ?ejeti?ky
(50.4060°N, 14.9016°E)
Time: 13:27:27
(UTC+00:00)

Envisat - Visible Passes

Search period start: 25 February 2021 00:00
Search period end: 07 March 2021 00:00
Orbit: 764 x 766 km, 98.1° (Epoch: 24 February)

Date Brightness Start Highest point End Pass type
(mag) Time Alt. Az. Time Alt. Az. Time Alt. Az.
25 Feb 5.5 03:43:18 10° NE 03:47:16 22° E 03:51:13 10° SE visible
26 Feb 6.3 03:08:33 10° ENE 03:09:56 11° E 03:11:18 10° E visible
26 Feb 3.3 04:44:47 10° NNE 04:49:54 72° ESE 04:54:58 10° S visible
27 Feb 4.7 04:08:13 10° NNE 04:12:55 36° E 04:17:33 10° SSE visible
27 Feb 6.1 17:08:31 10° SW 17:11:55 18° W 17:15:21 10° NW visible
28 Feb 5.8 03:32:12 10° NE 03:35:43 18° E 03:39:12 10° SE visible
28 Feb 3.0 05:10:12 10° N 05:15:18 72° WNW 05:20:21 10° SSW visible
01 Mar 3.7 04:33:24 10° NNE 04:38:26 58° E 04:43:27 10° S visible
01 Mar 6.7 17:36:41 10° W 17:37:42 11° W 17:38:44 10° WNW visible
02 Mar 5.1 03:56:57 10° NNE 04:01:23 29° E 04:05:48 10° SSE visible
03 Mar 6.0 03:21:16 10° NE 03:24:08 15° E 03:27:00 10° ESE visible
03 Mar 3.0 04:58:45 10° NNE 05:03:53 87° WNW 05:08:58 10° SSW visible
04 Mar 4.2 04:22:02 10° NNE 04:26:58 47° E 04:31:51 10° S visible
04 Mar 6.4 17:23:40 10° WSW 17:26:06 13° W 17:28:33 10° WNW visible
05 Mar 5.4 03:45:45 10° NE 03:49:51 24° E 03:53:57 10° SE visible
06 Mar 6.2 03:10:38 10° ENE 03:12:32 12° E 03:14:26 10° ESE visible
06 Mar 3.3 04:47:19 10° NNE 04:52:26 77° ESE 04:57:32 10° S visible
